Flag for Canada Weather past 2 weeks in Stonewall, Manitoba, Canada

Now
79 °F

Overcast.


Feels Like: 81 °F
Forecast: 65 / 74 °F
Wind: 13 mph from Southeast

Location: Winnipeg Int. Airportman.

Current Time: Aug 20, 2014 at 7:39:09 PM

Latest Report: Aug 20, 2014 at 7:00 PM


Visibility: 15 mi

Pressure: 29.76 "Hg

Humidity: 65%

Dew point: 66 °F

Location of StonewallLocation

Historic Weather in Stonewall — Graph

°F

Stonewall temperature yesterday

Maximum temperature yesterday: 81 °F (at 5:00 PM)
Minimum temperature yesterday: 55 °F (at 5:00 AM)
Average temperature yesterday: 68 °F

Past Weeks' High & Low Weather Summary

 TemperatureHumidityPressure
High90 °F (Aug 15, 4:00 PM)100% (Aug 11, 3:00 AM)30.23 "Hg (Aug 11, 3:00 AM)
Low46 °F (Aug 11, 6:00 AM)39% (Aug 11, 4:00 PM)29.68 "Hg (Aug 18, 3:00 PM)
Average69 °F72%29.96 "Hg
* Reported Aug 5 6:00 PM — Aug 20 6:00 PM, Stonewall, Weather by CustomWeather, © 2014

Note: Actual official high and low records may vary slightly from our data, if they occured in-between our weather recording intervals... More about our weather records

Advertising

Stonewall weather history for previous 24 hours

 ConditionsComfort  
Time TempWeatherWind HumidityBarometerVisibility
6:00 PM
Aug 20
79 °FBroken clouds.10 mph65%29.78 "Hg15 mi
5:00 PM81 °FPartly sunny.10 mph62%29.78 "Hg15 mi
4:00 PM84 °FBroken clouds.14 mph55%29.77 "Hg15 mi
3:00 PM82 °FBroken clouds.13 mph58%29.78 "Hg15 mi
2:00 PM82 °FBroken clouds.14 mph58%29.77 "Hg15 mi
1:00 PM82 °FPartly sunny.16 mph58%29.77 "Hg15 mi
12:00 PM79 °FPartly sunny.15 mph61%29.76 "Hg15 mi
11:00 AM77 °FPassing clouds.13 mph65%29.76 "Hg15 mi
10:00 AM73 °FPassing clouds.13 mph74%29.78 "Hg15 mi
9:00 AM70 °FPassing clouds.10 mph78%29.79 "Hg15 mi
8:00 AM66 °FScattered clouds.7 mph83%29.79 "Hg15 mi
7:00 AM64 °FPartly cloudy.8 mph88%29.79 "Hg15 mi
6:00 AM63 °FPassing clouds.9 mph94%29.78 "Hg15 mi
5:00 AM64 °FPassing clouds.10 mph88%29.77 "Hg15 mi
4:00 AM64 °FPassing clouds.8 mph88%29.76 "Hg15 mi
3:00 AM64 °FClear.10 mph88%29.76 "Hg15 mi
2:00 AM66 °FPassing clouds.10 mph83%29.77 "Hg15 mi
1:00 AM66 °FPassing clouds.9 mph88%29.77 "Hg15 mi
12:00 AM68 °FPassing clouds.12 mph83%29.77 "Hg15 mi
11:00 PM
Aug 19
70 °FPassing clouds.10 mph78%29.77 "Hg15 mi
10:00 PM70 °FPassing clouds.8 mph73%29.76 "Hg15 mi
9:00 PM72 °FPassing clouds.8 mph69%29.75 "Hg15 mi
8:00 PM75 °FScattered clouds.8 mph65%29.74 "Hg15 mi
7:00 PM77 °FPartly sunny.8 mph57%29.74 "Hg15 mi
Weather by CustomWeather, © 2014

See weather overviewHow to use our weather pages